Flag for Singapore

Past Weather in 1°21'19.3"N, 103°52'04.7"E, Singapore — Yesterday and Last 2 Weeks

Now
82 °F

Passing clouds.


Feels Like: 91 °F
Forecast: 89 / 78 °F
Wind: 2 mph from Northeast

Location: Singapore / Paya Lebar

Current Time: Jul 5, 2020 at 10:15:04 pm

Latest Report: Jul 5, 2020 at 9:00 pm


Visibility: N/A

Pressure: 29.74 "Hg

Humidity: 84%

Dew Point: 77 °F

Location of 1°21'19.3"N, 103°52'04.7"ELocation

Past Weather in 1°21'19.3"N, 103°52'04.7"E — Graph

°F

1°21'19.3"N, 103°52'04.7"E Temperature Yesterday

Maximum temperature yesterday: 90 °F (at 2:00 pm)
Minimum temperature yesterday: 79 °F (at 11:00 pm)
Average temperature yesterday: 85 °F

High & Low Weather Summary for the Past Weeks

 TemperatureHumidityPressure
High90 °F (Jun 26, 1:00 pm)100% (Jun 21, 12:25 pm)29.89 "Hg (Jun 21, 12:25 pm)
Low73 °F (Jun 23, 8:00 am)55% (Jul 3, 4:00 pm)29.68 "Hg (Jun 21, 5:00 pm)
Average83 °F81%29.79 "Hg
* Reported Jun 20 8:00 pm — Jul 5 8:00 pm, 1°21'19.3"N, 103°52'04.7"E. Weather by CustomWeather, © 2020

Note: Actual official high and low records may vary slightly from our data, if they occured in-between our weather recording intervals... More about our weather records

1°21'19.3"N, 103°52'04.7"E Weather History for the Previous 24 Hours

Scroll right to see more
 ConditionsComfort  
Time TempWeatherWind HumidityBarometerVisibility
8:00 pm
Sun, Jul 5
82 °FPassing clouds.No wind79%29.74 "HgN/A
7:00 pm82 °FPartly sunny.No wind79%29.71 "HgN/A
6:00 pm82 °FScattered showers. Scattered clouds.6 mph79%29.71 "HgN/A
5:00 pm84 °FThunderstorms. Scattered clouds.7 mph79%29.74 "HgN/A
4:00 pm88 °FThundershowers. Scattered clouds.8 mph66%29.71 "Hg6 mi
3:30 pm88 °FThundershowers. Partly sunny.8 mph70%29.71 "HgN/A
3:00 pm88 °FPartly sunny.8 mph70%29.71 "HgN/A
2:00 pm88 °FPartly sunny.7 mph66%29.77 "HgN/A
1:00 pm88 °FBroken clouds.7 mph66%29.77 "HgN/A
12:00 pm90 °FBroken clouds.5 mph67%29.80 "HgN/A
11:00 am86 °FBroken clouds.7 mph70%29.83 "HgN/A
10:00 am84 °FBroken clouds.5 mph79%29.83 "HgN/A
9:00 am84 °FBroken clouds.6 mph79%29.83 "HgN/A
8:00 am82 °FPartly sunny.5 mph84%29.80 "HgN/A
7:00 am82 °FPassing clouds.2 mph84%29.77 "HgN/A
6:00 am82 °FPartly cloudy.3 mph84%29.77 "HgN/A
5:00 am81 °FPartly cloudy.3 mph89%29.77 "HgN/A
4:00 am81 °FPassing clouds.No wind84%29.80 "HgN/A
3:00 am81 °FPassing clouds.No wind84%29.80 "HgN/A
2:00 am81 °FPassing clouds.No wind84%29.83 "HgN/A
1:00 am81 °FPassing clouds.2 mph79%29.83 "HgN/A
12:00 am81 °FPassing clouds.No wind79%29.86 "HgN/A
11:00 pm
Sat, Jul 4
79 °FPassing clouds.2 mph84%29.83 "HgN/A
10:00 pm81 °FLight rain. Partly cloudy.5 mph89%29.83 "HgN/A
Weather by CustomWeather, © 2020

See weather overview